Regional Weather Roundup
Issued by NWS Cleveland, OH

Home | Current Version | Previous Version | Graphics & Text | Print | Product List | Glossary On
Versions: 1 2 3 4 5 6 7 8 9 10 11 12 13 14 15 16 17 18 19 20 21 22 23 24 25 26 27 28 29 30 31 32 33 34 35 36 37 38 39 40 41 42 43 44 45 46 47 48 49 50
000
ASUS41 KCLE 020410
RWRCLE
OHIO REGIONAL WEATHER ROUNDUP
NATIONAL WEATHER SERVICE WILMINGTON, OH
1200 AM EDT TUE JUN 02 2015

NOTE: "FAIR" INDICATES FEW OR NO CLOUDS BELOW 12,000 FEET WITH NO
SIGNIFICANT WEATHER AND/OR OBSTRUCTIONS TO VISIBILITY.

OHZ001>008-015>018-024>027-034-035-043-044-020500-
   NORTHWEST OHIO

CITY           SKY/WX    TMP DP  RH WIND       PRES   REMARKS
DEFIANCE       FAIR      50  46  86 CALM      30.20F
FINDLAY        CLOUDY    54  48  80 NE6       30.18F
TOLEDO EXPRESS CLOUDY    52  45  77 NE6       30.19F
TOLEDO EXEC    CLOUDY    56  46  69 NE5       30.20F
LIMA           MOCLDY    49  47  93 NE5       30.18F
$$

OHZ009>014-019>023-028>033-038-089-020500-
   NORTHEAST OHIO

CITY           SKY/WX    TMP DP  RH WIND       PRES   REMARKS
CLE-HOPKINS    CLOUDY    51  49  92 N6        30.20S
CLE-LAKEFRONT  MOCLDY    54  50  86 NE9       30.18S
CUY CO. ARPT   NOT AVBL
LORAIN-ELYRIA  MOCLDY    50  48  93 CALM      30.19F
ASHTABULA      CLOUDY    50  49  96 CALM      30.19S
AKRON-CANTON   CLOUDY    52  47  83 NE8       30.16S
WOOSTER        CLOUDY    51  47  86 N6        30.18S
MANSFIELD      MOCLDY    49  48  97 N8        30.17F
YOUNGSTOWN     CLOUDY    51  48  89 N7        30.16F
$$

OHZ042-051>053-060>062-070>072-077>081-020500-
  SOUTHWEST OHIO

CITY           SKY/WX    TMP DP  RH WIND       PRES   REMARKS
CINC-COVINGTON CLOUDY    56  50  80 NE12      30.14F
CINC-LUNKEN    CLOUDY    55  51  86 E9        30.17S
HAMILTON       CLOUDY    56  50  80 E8        30.17F
DAYTON         PTCLDY    53  48  83 N5        30.18R
WRIGHT-PAT AFB PTCLDY    51  48  87 NE5       30.17R
DAYTON GENERAL CLOUDY    52  48  86 NE8       30.16R
WILMINGTON     CLOUDY    52  48  86 NE7       30.16R
$$

OHZ036-037-039>041-045>050-054>059-063>069-073>076-082>088-020500-
  CENTRAL AND SOUTHEAST OHIO

CITY           SKY/WX    TMP DP  RH WIND       PRES   REMARKS
COLUMBUS       CLOUDY    53  48  83 NE6       30.16S
OSU AIRPORT    CLOUDY    52  48  86 N6        30.16S
BOLTON FIELD   NOT AVBL
RICKENBACK AFB CLOUDY    52  49  90 NE5       30.16R
NEWARK         CLOUDY    53  48  83 NE3       30.16S
MARION         CLOUDY    50  47  89 NE5       30.18S
LANCASTER      CLOUDY    53  49  86 NE8       30.16S
ZANESVILLE     CLOUDY    52  47  83 N5        30.16R
NEW PHILLY     CLOUDY    54  48  80 VRB3      30.17S
$$


USA.gov is the U.S. government's official web portal to all federal, state and local government web resources and services.